Regional Weather Roundup
Issued by NWS Albany, NY

Home | Current Version | Previous Version | Text Only | Print | Product List | Glossary On
Versions: 1 2 3 4 5 6 7 8 9 10 11 12 13 14 15 16 17 18 19 20 21 22 23 24 25 26 27
000
ASUS41 KALY 221910
RWRALY

NEW YORK STATE HOURLY WEATHER ROUNDUP
NATIONAL WEATHER SERVICE ALBANY NY
300 PM EDT TUE AUG 22 2017

NOTE: "FAIR" INDICATES FEW OR NO CLOUDS BELOW 12,000 FEET WITH NO
SIGNIFICANT WEATHER AND/OR NO OBSTRUCTIONS TO VISIBILITY.

NYZ032-033-038>043-046>054-057>066-NYZ062>081-082-084-222000-
EAST


CITY           SKY/WX    TMP DP  RH WIND       PRES   REMARKS
ALBANY         MOSUNNY   89  70  53 S16G29    29.77F HX  94
GLENS FALLS    LGT RAIN  84  71  65 S9G21     29.74F
POUGHKEEPSIE   MOSUNNY   89  70  53 SW9G18    29.82F HX  94
NEWBURGH       MOSUNNY   88  73  62 SW9G17    29.88F HX  96
MONTGOMERY     MOSUNNY   89  71  55 SW20G26   29.84F HX  95
WHITE PLAINS   MOSUNNY   87  74  64 S14       29.89F HX  95
ISLIP          PTSUNNY   82  76  81 S10       29.91F
NEW YORK CITY  PTSUNNY   88  76  67 S13G18    29.88F HX  99
CENTRAL PARK   MOSUNNY   88  74  63 S8        29.91F HX  96
$$

NYZ005>009-017-018-044>046-055-056-222000-
CENTRAL


CITY           SKY/WX    TMP DP  RH WIND       PRES   REMARKS
FULTON         TSTM      71  68  90 SW10G23   29.70F FOG
SYRACUSE       CLOUDY    86  67  52 S24       29.68F
ROME           MOSUNNY   86  68  54 S12       29.71F
ELMIRA         CLOUDY    87  61  41 SW15G35   29.76F
BINGHAMTON     MOSUNNY   82  65  56 SW15G25   29.83F
MONTICELLO     PTSUNNY   84  69  60 S13G18    29.89F
$$

NYZ026>034-041>043-087-222000-
NORTH


CITY           SKY/WX    TMP DP  RH WIND       PRES   REMARKS
WATERTOWN      LGT RAIN  73  72  96 S13G18    29.67F FOG
FORT DRUM      NOT AVBL
OGDENSBURG     FAIR      78  72  81 SW10G17   29.63F
MASSENA        PTSUNNY   75  72  90 SW18      29.64F
SARANAC LAKE   CLOUDY    80  66  62 S35G40    29.71F
PLATTSBURGH    CLOUDY    84  71  65 S15       29.63F
$$

NYZ001>004-010>016-019>021-085-222000-
WEST


CITY           SKY/WX    TMP DP  RH WIND       PRES   REMARKS
NIAGARA FALLS  CLOUDY    82  67  60 W20G33    29.68F
BUFFALO        CLOUDY    75  71  87 SW17G24   29.71F
DUNKIRK        LGT RAIN  73  71  93 SW15G25   29.75S FOG
JAMESTOWN      RAIN      66  64  94 SW17G26   29.83R
WELLSVILLE     LGT RAIN  73  66  78 S14G23    29.86S
ROCHESTER      PTSUNNY   77  74  90 SW13      29.72F
PENN YAN       CLOUDY    84  65  52 SW9       29.75F
$$

             KEY
       WCI = WIND CHILL INDEX
       VSB = VISIBILITY
       HX  = HEAT INDEX
$$




USA.gov is the U.S. government's official web portal to all federal, state and local government web resources and services.